Location: Novokuznetsk
(53.7500°N, 87.1000°E)
Time: 13:33:11
(UTC+06:00)

ISS - Pass Details

Date: 13 July 2018
Orbit: 402 x 408 km, 51.6° (Epoch: 23 July)

Event Time Altitude Azimuth Distance (km) Brightness Sun altitude
Exits shadow 02:52:30 - 254° (WSW) 1,869 -0.9 -7.3°
Reaches altitude 10° 02:53:29 10° 252° (WSW) 1,470 -1.5 -7.2°
Maximum altitude 02:56:43 57° 173° (S) 489 -3.7 -6.9°
Drops below altitude 10° 02:59:58 10° 94° (E) 1,475 -0.5 -6.6°
Sets 03:02:05 0° 90° (E) 2,337 0.6 -6.5°
